FW7106 Weather Reports


Display with metric or nautical units.
time (UTC)temp
F
wind
direction
speed
MPH
gust
MPH
rain 1hr
in
rain 24hr
in
rain mn
in
humidity
%
barometer
mb
20260505164343 80 220 9.0 11.0 0.00 0.00 0.00 85 1007.6
20260505163841 80 215 3.0 5.0 0.00 0.00 0.00 86 1007.7
20260505163340 80 188 6.0 10.0 0.00 0.00 0.00 86 1007.8
20260505162838 80 228 3.0 5.0 0.00 0.00 0.00 86 1007.6
20260505162334 80 239 7.0 9.0 0.00 0.00 0.00 85 1007.7
20260505161831 80 99 5.0 6.0 0.00 0.00 0.00 86 1007.6
20260505161328 79 199 2.0 3.0 0.00 0.00 0.00 88 1007.8
20260505160825 78 218 3.0 5.0 0.00 0.00 0.00 89 1007.7
20260505160323 78 198 5.0 7.0 0.00 0.00 0.00 88 1007.8
20260505153302 77 211 8.0 11.0 0.00 0.00 0.00 90 1007.6
20260505152759 76 231 3.0 3.0 0.00 0.00 0.00 91 1007.7
20260505152255 76 148 5.0 7.0 0.00 0.00 0.00 91 1007.7
20260505151750 76 188 3.0 5.0 0.00 0.00 0.00 92 1007.9
20260505151248 75 211 3.0 3.0 0.00 0.00 0.00 92 1007.8
20260505150744 75 217 7.0 10.0 0.00 0.00 0.00 92 1008.0
20260505150241 75 189 5.0 6.0 0.00 0.00 0.00 92 1007.9
20260505140206 73 224 1.0 2.0 0.00 0.00 0.00 93 1007.8
20260505130130 73 199 1.0 2.0 0.00 0.00 0.00 93 1007.1
20260505124619 72 183 3.0 3.0 0.00 0.00 0.00 93 1007.4
20260505124115 72 229 2.0 2.0 0.00 0.00 0.00 93 1007.3
20260505123612 72 170 3.0 3.0 0.00 0.00 0.00 93 1007.5
20260505123108 72 196 1.0 2.0 0.00 0.00 0.00 93 1007.1
20260505122605 72 188 1.0 1.0 0.00 0.00 0.00 93 1007.3
20260505122102 72 210 2.0 2.0 0.00 0.00 0.00 93 1007.2
20260505121559 72 207 3.0 3.0 0.00 0.00 0.00 94 1007.1
20260505121056 72 213 3.0 3.0 0.00 0.00 0.00 94 1007.2
20260505120552 71 183 1.0 1.0 0.00 0.00 0.00 94 1006.9
20260505120048 71 206 0.0 1.0 0.00 0.00 0.00 94 1006.9
20260505115542 71 193 3.0 3.0 0.00 0.00 0.00 94 1007.2
20260505115040 71 200 1.0 1.0 0.00 0.00 0.00 94 1007.2
20260505114537 71 208 1.0 1.0 0.00 0.00 0.00 94 1007.2
20260505114033 71 246 2.0 2.0 0.00 0.00 0.00 94 1007.1
20260505113530 71 197 1.0 2.0 0.00 0.00 0.00 94 1007.3
20260505113026 71 198 1.0 1.0 0.00 0.00 0.00 93 1007.2
20260505112522 71 184 2.0 2.0 0.00 0.00 0.00 93 1006.9
20260505112015 71 202 2.0 3.0 0.00 0.00 0.00 93 1006.9
20260505111508 71 187 0.0 0.0 0.00 0.00 0.00 94 1007.1
20260505111004 71 225 3.0 5.0 0.00 0.00 0.00 94 1007.1
20260505110501 71 208 1.0 2.0 0.00 0.00 0.00 94 1006.9
20260505101933 71 219 1.0 1.0 0.00 0.00 0.00 93 1007.2
20260505101432 71 202 2.0 2.0 0.00 0.00 0.00 93 1006.8
20260505100928 71 168 1.0 2.0 0.00 0.00 0.00 93 1006.9
20260505100425 71 158 3.0 3.0 0.00 0.00 0.00 93 1006.9
20260505095921 71 191 1.0 1.0 0.00 0.00 0.00 93 1006.9
20260505095418 71 187 2.0 2.0 0.00 0.00 0.00 93 1007.2
20260505094914 71 202 1.0 2.0 0.00 0.00 0.00 93 1007.4
20260505094412 71 186 2.0 3.0 0.00 0.00 0.00 93 1007.3
20260505093907 71 182 5.0 6.0 0.00 0.00 0.00 93 1007.1
20260505093404 71 190 1.0 2.0 0.00 0.00 0.00 93 1007.2
20260505092902 71 187 2.0 3.0 0.00 0.00 0.00 93 1007.0
20260505092400 71 203 1.0 1.0 0.00 0.00 0.00 93 1007.2
20260505091857 71 155 3.0 5.0 0.00 0.00 0.00 93 1007.2
20260505091355 71 191 1.0 2.0 0.00 0.00 0.00 93 1007.5
20260505090852 71 221 3.0 3.0 0.00 0.00 0.00 93 1007.6
20260505090350 71 179 3.0 5.0 0.00 0.00 0.00 93 1007.4
20260505085847 71 183 1.0 2.0 0.00 0.00 0.00 93 1007.3
20260505085345 71 192 0.0 0.0 0.00 0.00 0.00 93 1007.2
20260505084843 71 195 3.0 5.0 0.00 0.00 0.00 93 1007.1
20260505084341 71 195 3.0 3.0 0.00 0.00 0.00 93 1007.4
20260505083838 71 197 3.0 3.0 0.00 0.00 0.00 93 1007.5
20260505083336 71 108 2.0 5.0 0.00 0.00 0.00 93 1007.5
20260505082832 71 215 1.0 1.0 0.00 0.00 0.00 93 1007.7
20260505082328 71 203 2.0 3.0 0.00 0.00 0.00 93 1007.8
20260505081825 71 199 4.0 7.0 0.00 0.00 0.00 93 1007.7
20260505081322 71 206 3.0 5.0 0.00 0.00 0.00 93 1008.0
20260505080818 71 178 2.0 2.0 0.00 0.00 0.00 93 1007.9
20260505080314 71 142 2.0 2.0 0.00 0.00 0.00 93 1007.8
20260505075810 71 199 2.0 2.0 0.00 0.00 0.00 92 1007.7
20260505075307 70 183 4.0 5.0 0.00 0.00 0.00 93 1008.0
20260505074804 70 127 1.0 2.0 0.00 0.00 0.00 92 1008.0
20260505074301 70 234 2.0 2.0 0.00 0.00 0.00 92 1008.1
20260505073759 70 193 2.0 2.0 0.00 0.00 0.00 92 1008.2
20260505073257 70 176 2.0 2.0 0.00 0.00 0.00 92 1008.1
20260505072753 70 196 1.0 1.0 0.00 0.00 0.00 92 1008.5
20260505072249 70 186 1.0 1.0 0.00 0.00 0.00 92 1008.3
20260505071745 70 109 3.0 3.0 0.00 0.00 0.00 92 1008.3
20260505071242 70 204 2.0 2.0 0.00 0.00 0.00 92 1008.4
20260505070740 70 174 0.0 1.0 0.00 0.00 0.00 92 1008.6
20260505070236 70 196 5.0 6.0 0.00 0.00 0.00 92 1008.4
20260505065731 70 210 0.0 0.0 0.00 0.00 0.00 92 1008.5
20260505065229 70 151 2.0 2.0 0.00 0.00 0.00 92 1008.8
20260505064725 70 204 3.0 3.0 0.00 0.00 0.00 92 1008.7
20260505064223 70 129 2.0 2.0 0.00 0.00 0.00 92 1008.7
20260505063720 70 201 3.0 5.0 0.00 0.00 0.00 92 1008.7
20260505063217 70 164 2.0 5.0 0.00 0.00 0.00 92 1008.6
20260505062713 70 185 3.0 3.0 0.00 0.00 0.00 91 1008.4
20260505062211 70 151 3.0 5.0 0.00 0.00 0.00 91 1008.7
20260505061708 70 188 2.0 3.0 0.00 0.00 0.00 91 1008.8
20260505061206 70 190 1.0 2.0 0.00 0.00 0.00 91 1008.6
20260505060703 70 187 2.0 2.0 0.00 0.00 0.00 91 1008.7
20260505060200 70 110 3.0 5.0 0.00 0.00 0.00 91 1008.7
20260505055655 70 106 3.0 3.0 0.00 0.00 0.00 91 1008.6
20260505055151 70 185 1.0 1.0 0.00 0.00 0.00 91 1008.6
20260505054649 70 150 2.0 2.0 0.00 0.00 0.00 91 1008.6
20260505054147 70 158 1.0 2.0 0.00 0.00 0.00 91 1008.6
20260505053644 70 130 3.0 3.0 0.00 0.00 0.00 91 1008.7
20260505053140 70 59 3.0 5.0 0.00 0.00 0.00 90 1008.6
20260505052638 70 127 4.0 8.0 0.00 0.00 0.00 90 1008.9
20260505052135 70 174 1.0 2.0 0.00 0.00 0.00 90 1008.7
20260505051632 70 196 3.0 5.0 0.00 0.00 0.00 90 1009.0
20260505051130 70 213 4.0 6.0 0.00 0.00 0.00 90 1008.6
20260505050627 70 182 2.0 3.0 0.00 0.00 0.00 90 1008.9
20260505050126 70 116 3.0 6.0 0.00 0.00 0.00 89 1008.7
20260505041555 71 164 2.0 2.0 0.00 0.00 0.00 88 1009.3
20260505041053 71 175 4.0 5.0 0.00 0.00 0.00 88 1009.3
20260505040550 71 180 3.0 5.0 0.00 0.00 0.00 88 1009.1
20260505040047 71 190 2.0 2.0 0.00 0.00 0.00 88 1009.0
20260505035543 71 184 1.0 1.0 0.00 0.00 0.00 88 1009.1
20260505035040 71 183 1.0 2.0 0.00 0.00 0.00 88 1009.1
20260505034536 71 172 2.0 3.0 0.00 0.00 0.00 87 1009.1
20260505034033 71 183 2.0 2.0 0.00 0.00 0.00 87 1009.0
20260505033530 72 194 2.0 2.0 0.00 0.00 0.00 87 1009.0
20260505033028 72 218 1.0 2.0 0.00 0.00 0.00 87 1008.9
20260505032526 72 92 3.0 3.0 0.00 0.00 0.00 87 1009.0
20260505032022 72 202 3.0 3.0 0.00 0.00 0.00 87 1009.1
20260505031520 72 152 2.0 5.0 0.00 0.00 0.00 86 1008.9
20260505031016 72 169 2.0 2.0 0.00 0.00 0.00 86 1009.1
20260505030513 72 95 7.0 7.0 0.00 0.00 0.00 86 1009.1
20260505030009 73 206 3.0 6.0 0.00 0.00 0.00 86 1008.9
20260505025504 73 135 5.0 7.0 0.00 0.00 0.00 86 1009.0
20260505025004 73 192 8.0 13.0 0.00 0.00 0.00 86 1008.8
20260505024500 73 166 5.0 8.0 0.00 0.00 0.00 86 1008.9
20260505023957 73 204 3.0 5.0 0.00 0.00 0.00 86 1008.7
20260505023454 73 170 3.0 3.0 0.00 0.00 0.00 85 1008.7
20260505022952 73 141 3.0 3.0 0.00 0.00 0.00 85 1008.8
20260505022449 73 167 0.0 0.0 0.00 0.00 0.00 85 1008.7
20260505021946 73 130 3.0 3.0 0.00 0.00 0.00 85 1008.5
20260505021443 73 116 3.0 3.0 0.00 0.00 0.00 85 1008.6
20260505020938 73 97 1.0 1.0 0.00 0.00 0.00 85 1008.5
20260505020434 73 179 2.0 3.0 0.00 0.00 0.00 84 1008.6
20260505015931 73 100 4.0 6.0 0.00 0.00 0.00 84 1008.4
20260505015428 73 153 3.0 5.0 0.00 0.00 0.00 84 1008.5
20260505014926 73 189 5.0 7.0 0.00 0.00 0.00 84 1008.5
20260505014422 74 100 5.0 8.0 0.00 0.00 0.00 84 1008.3
20260505013919 74 157 1.0 2.0 0.00 0.00 0.00 84 1008.4
20260505013416 74 190 1.0 2.0 0.00 0.00 0.00 84 1008.4
20260505012914 74 156 1.0 2.0 0.00 0.00 0.00 84 1008.1
20260505012412 74 114 1.0 5.0 0.00 0.00 0.00 83 1008.1
20260505011908 75 109 3.0 3.0 0.00 0.00 0.00 83 1008.3
20260505011404 75 185 0.0 1.0 0.00 0.00 0.00 83 1008.2
20260505010901 75 140 0.0 1.0 0.00 0.00 0.00 82 1008.1
20260505010357 75 176 0.0 1.0 0.00 0.00 0.00 82 1007.8
20260505005853 75 134 3.0 3.0 0.00 0.00 0.00 82 1008.1
20260505005350 75 127 3.0 3.0 0.00 0.00 0.00 81 1008.1
20260505004848 76 105 4.0 6.0 0.00 0.00 0.00 81 1007.9
20260505004343 76 136 4.0 5.0 0.00 0.00 0.00 80 1008.0
20260505003841 76 131 2.0 2.0 0.00 0.00 0.00 80 1007.9
20260505003338 77 156 1.0 2.0 0.00 0.00 0.00 79 1007.8
20260505002834 77 134 5.0 8.0 0.00 0.00 0.00 79 1007.7
20260505002331 77 100 5.0 8.0 0.00 0.00 0.00 78 1008.0
20260505001829 77 148 4.0 6.0 0.00 0.00 0.00 78 1008.1
20260505001326 77 120 4.0 6.0 0.00 0.00 0.00 77 1008.2
20260505000823 78 126 2.0 2.0 0.00 0.00 0.00 77 1008.1
20260505000321 78 105 3.0 3.0 0.00 0.00 0.00 77 1008.3
20260504235818 78 135 3.0 5.0 0.00 0.00 0.00 77 1008.2
20260504235314 78 145 8.0 9.0 0.00 0.00 0.00 76 1008.2
20260504234811 78 112 3.0 5.0 0.00 0.00 0.00 77 1008.1
20260504234309 78 124 8.0 10.0 0.00 0.00 0.00 76 1008.2
20260504233805 78 157 4.0 5.0 0.00 0.00 0.00 77 1008.4
20260504233301 79 179 2.0 3.0 0.00 0.00 0.00 76 1008.4
20260504232758 79 145 3.0 6.0 0.00 0.00 0.00 76 1008.3
20260504232255 79 165 3.0 3.0 0.00 0.00 0.00 75 1008.2
20260504231752 79 190 2.0 3.0 0.00 0.00 0.00 74 1008.4
20260504231248 79 126 1.0 2.0 0.00 0.00 0.00 75 1008.4
20260504230744 79 114 8.0 10.0 0.00 0.00 0.00 73 1008.5
20260504230243 80 180 7.0 13.0 0.00 0.00 0.00 73 1008.5
20260504225741 80 105 3.0 5.0 0.00 0.00 0.00 74 1008.4
20260504225237 80 206 2.0 3.0 0.00 0.00 0.00 73 1008.4
20260504224734 80 161 2.0 2.0 0.00 0.00 0.00 72 1008.5
20260504224231 81 214 3.0 3.0 0.00 0.00 0.00 70 1008.8
20260504223728 80 150 7.0 9.0 0.00 0.00 0.00 69 1008.8
20260504223223 80 134 4.0 6.0 0.00 0.00 0.00 71 1008.6
20260504222721 80 134 7.0 11.0 0.00 0.00 0.00 70 1008.8
20260504222217 81 179 2.0 3.0 0.00 0.00 0.00 69 1008.8
20260504221715 81 102 5.0 9.0 0.00 0.00 0.00 69 1008.8
20260504221212 81 134 3.0 7.0 0.00 0.00 0.00 68 1008.7
20260504220708 82 121 6.0 8.0 0.00 0.00 0.00 68 1008.7
20260504220206 82 135 2.0 2.0 0.00 0.00 0.00 68 1009.0
20260504215702 82 147 2.0 2.0 0.00 0.00 0.00 68 1008.6
20260504215159 82 121 4.0 5.0 0.00 0.00 0.00 68 1008.7
20260504214655 83 167 3.0 6.0 0.00 0.00 0.00 66 1008.9
20260504214152 82 190 3.0 3.0 0.00 0.00 0.00 66 1009.1
20260504213648 82 193 5.0 8.0 0.00 0.00 0.00 67 1009.4
20260504213145 83 165 3.0 3.0 0.00 0.00 0.00 65 1009.3
20260504212642 82 222 3.0 5.0 0.00 0.00 0.00 69 1009.6
20260504212138 83 177 1.0 1.0 0.00 0.00 0.00 68 1009.6
20260504211636 81 159 2.0 3.0 0.00 0.00 0.00 69 1009.7
20260504211132 81 187 1.0 2.0 0.00 0.00 0.00 70 1009.8
20260504210630 81 118 6.0 9.0 0.00 0.00 0.00 68 1009.8
20260504210126 82 68 4.0 6.0 0.00 0.00 0.00 66 1010.0
20260504205624 82 179 2.0 2.0 0.00 0.00 0.00 66 1010.1
20260504205121 82 173 1.0 2.0 0.00 0.00 0.00 67 1010.1
20260504204620 81 194 1.0 1.0 0.00 0.00 0.00 67 1010.2
20260504204118 81 105 1.0 2.0 0.00 0.00 0.00 67 1010.4
20260504203617 82 101 2.0 2.0 0.00 0.00 0.00 66 1010.4
20260504203114 82 203 3.0 5.0 0.00 0.00 0.00 67 1010.4
20260504202608 82 179 1.0 2.0 0.00 0.00 0.00 65 1010.3
20260504202106 82 126 5.0 7.0 0.00 0.00 0.00 65 1010.4
20260504201602 82 165 5.0 7.0 0.00 0.00 0.00 65 1010.6
20260504201100 82 181 5.0 7.0 0.00 0.00 0.00 65 1010.8
20260504200556 82 183 5.0 8.0 0.00 0.00 0.00 65 1010.7
20260504200053 84 194 3.0 3.0 0.00 0.00 0.00 66 1010.8
20260504195549 84 120 4.0 6.0 0.00 0.00 0.00 64 1010.9
20260504195046 84 215 1.0 1.0 0.00 0.00 0.00 63 1011.0
20260504194543 84 55 1.0 2.0 0.00 0.00 0.00 62 1011.2
20260504194038 82 147 2.0 2.0 0.00 0.00 0.00 66 1011.2
20260504193535 80 184 3.0 5.0 0.00 0.00 0.00 67 1011.4
20260504193034 81 191 3.0 5.0 0.00 0.00 0.00 67 1011.5
20260504192532 82 182 7.0 9.0 0.00 0.00 0.00 65 1011.3
20260504192029 81 195 2.0 2.0 0.00 0.00 0.00 66 1011.6
20260504191527 82 93 2.0 2.0 0.00 0.00 0.00 66 1011.5
20260504191023 81 206 5.0 6.0 0.00 0.00 0.00 66 1011.6
20260504190519 81 197 5.0 9.0 0.00 0.00 0.00 67 1011.7
20260504190015 81 116 0.0 1.0 0.00 0.00 0.00 66 1011.8
20260504185513 81 185 3.0 3.0 0.00 0.00 0.00 66 1012.2
20260504185009 81 225 1.0 1.0 0.00 0.00 0.00 67 1012.0
20260504184504 79 207 9.0 13.0 0.00 0.00 0.00 68 1012.1
20260504184000 79 176 2.0 3.0 0.00 0.00 0.00 69 1012.2
20260504183457 78 237 2.0 3.0 0.00 0.00 0.00 71 1012.2
20260504182955 79 233 8.0 9.0 0.00 0.00 0.00 68 1012.1
20260504182452 79 177 2.0 3.0 0.00 0.00 0.00 67 1012.6
20260504181949 79 213 5.0 6.0 0.00 0.00 0.00 69 1012.4
20260504181446 79 216 4.0 5.0 0.00 0.00 0.00 69 1012.4
20260504180945 78 218 5.0 7.0 0.00 0.00 0.00 69 1012.8
20260504180444 80 231 2.0 3.0 0.00 0.00 0.00 67 1012.4
20260504175941 79 119 3.0 3.0 0.00 0.00 0.00 68 1012.6
20260504175438 80 188 4.0 6.0 0.00 0.00 0.00 66 1012.9
20260504174936 81 217 7.0 10.0 0.00 0.00 0.00 65 1012.9
20260504174433 81 193 2.0 3.0 0.00 0.00 0.00 63 1012.8
20260504173931 81 219 3.0 5.0 0.00 0.00 0.00 65 1012.6
20260504173426 81 213 5.0 7.0 0.00 0.00 0.00 65 1012.9
20260504172924 81 172 3.0 3.0 0.00 0.00 0.00 64 1012.8
20260504172420 80 184 2.0 3.0 0.00 0.00 0.00 64 1013.0
20260504171917 80 268 5.0 6.0 0.00 0.00 0.00 64 1013.0
20260504171414 80 128 4.0 6.0 0.00 0.00 0.00 64 1013.2
20260504170911 79 168 1.0 2.0 0.00 0.00 0.00 66 1013.1
20260504170407 79 212 5.0 6.0 0.00 0.00 0.00 65 1013.3